Location: Gesvres
(49.0440°N, 2.8518°E)
Time: 09:33:12
(UTC+00:00)

Cosmos 2360 - Pass Details

Date: 28 January 2023
Orbit: 845 x 857 km, 70.8° (Epoch: 23 March)

Event Time Altitude Azimuth Distance (km) Brightness Sun altitude
Rises 17:39:30 0° 212° (SSW) 3,393 8.2 -10.1°
Reaches altitude 10° 17:41:57 10° 214° (SW) 2,462 7.4 -10.5°
Maximum altitude 17:47:36 75° 300° (WNW) 879 4.4 -11.4°
Drops below altitude 10° 17:53:19 10° 26° (NNE) 2,483 6.3 -12.3°
Enters shadow 17:54:51 - 28° (NNE) 3,069 6.7 -12.5°
